JCSAT 2B

Last updated on Nov. 18, 2019, 4:21 a.m. UTC

1 41471U 16028A   19320.88351378 -.00000157  00000-0  00000+0 0  9995
2 41471   0.0123 309.4146 0002100 295.1750 283.1653  1.00269054 12989
UTC
Height (km)
Latitude
Longitude
Inclination
Orbital Period
UTC large
Height (km)
Speed (km/s)
/
Latitude / Longitude
Inclination (degrees)
Orbital Period (minutes)
Azimuth
Elevation
Range (km)
Doppler Factor
iOS Compass Heading
iOS Angle

Next 30 passes for location: Hong Kong

Rise time Rise Azimuth (degrees) Set time Set Azimuth (degrees) Duration Max altitude (degrees)

No matching passes for this satellites